Wind_Speed
26 28 28 27 27 25 25 26 26 24 20 17 16 16 17 16 15 13 12 11 12 11 9 8 7 7 7 8 10 11 11 12 12 12 11 11 11 11 11 11 11 11 11 10 10 10 10 9 9 9 8 8 7 6 6 5 5 4 4 4 3 3 3 3 3 3 3 3 2 2 3 3 3 3 4 4 5 5 6 6 7 8 10 11 12
25 27 28 28 26 24 26 27 26 23 21 18 18 18 19 18 17 14 13 12 12 12 10 8 7 6 7 9 10 11 11 12 12 12 11 11 10 10 10 10 10 10 10 9 9 9 9 8 8 7 7 6 6 5 4 4 4 3 3 3 2 3 3 4 4 4 5 5 4 5 6 6 6 5 5 6 7 7 8 9 10 12 13 14 16
24 26 27 28 26 25 27 28 26 24 22 20 19 20 21 21 19 16 14 12 13 14 10 8 6 7 8 10 11 11 11 11 11 11 10 9 8 8 7 7 7 7 7 7 7 7 7 6 6 5 5 4 3 2 2 2 2 1 1 0 1 2 3 4 5 6 6 6 6 7 8 9 9 8 8 9 9 10 11 12 13 15 16 17 18
24 26 27 27 28 28 29 29 27 25 23 21 21 21 23 23 20 17 15 14 14 15 11 8 7 8 10 11 11 12 12 11 10 9 8 7 6 6 5 5 4 4 3 4 4 4 4 3 3 3 2 1 1 2 3 4 5 5 5 5 5 5 6 6 7 8 8 8 9 9 10 10 10 11 11 11 12 13 14 15 16 17 17 18 20
24 25 27 28 28 29 30 30 28 26 25 23 22 23 25 26 22 18 16 16 15 15 12 9 8 9 11 12 12 12 12 11 10 9 8 6 5 4 3 3 2 2 1 1 1 1 1 1 1 1 2 2 3 4 6 7 8 8 8 8 8 9 9 9 10 10 11 11 12 12 12 12 12 12 13 14 15 16 16 17 18 19 19 20 20
23 25 27 28 29 29 30 30 30 29 29 28 28 28 29 30 26 21 19 18 17 15 13 11 10 11 12 13 13 13 12 11 10 9 8 7 6 5 4 3 3 4 4 4 5 5 5 5 5 6 6 6 7 8 9 10 11 11 11 11 11 11 12 12 13 13 14 15 15 15 15 15 15 15 16 16 17 18 19 19 19 20 21 21 21
23 24 25 26 28 29 31 32 32 32 32 33 32 31 30 32 29 23 22 21 18 16 15 14 13 13 14 14 14 14 13 12 11 10 9 8 7 6 5 5 6 6 7 8 8 9 9 8 8 9 9 9 10 11 12 12 12 12 12 13 13 13 13 14 15 15 16 17 18 18 18 18 18 18 19 19 19 20 20 20 21 22 22 22 22
26 25 25 26 28 29 31 33 34 35 35 35 35 33 33 33 29 25 25 23 19 17 17 16 16 15 15 15 15 14 14 13 12 11 11 10 9 7 7 7 8 9 9 10 10 11 10 10 10 11 11 12 12 13 13 13 13 13 13 14 14 14 14 15 16 16 17 18 20 21 22 22 21 21 21 21 21 21 21 21 21 22 22 22 23
25 26 28 30 31 31 33 34 35 37 37 37 38 36 35 35 32 30 29 25 20 19 18 17 18 17 16 16 16 15 15 14 14 14 13 12 10 9 9 9 10 11 11 12 12 12 11 11 11 12 13 14 14 15 16 17 17 17 17 17 17 17 18 17 17 17 18 19 21 22 23 24 24 23 23 22 22 22 21 20 21 22 22 23 24
20 25 28 29 29 30 33 35 36 37 36 35 35 33 31 35 36 33 31 25 20 20 20 19 19 19 18 18 17 17 16 16 16 15 15 14 13 12 12 12 13 13 13 13 13 12 12 12 13 14 15 16 18 18 19 19 19 19 20 20 20 20 20 21 20 20 20 21 22 23 24 24 25 25 25 24 24 23 22 21 22 23 23 23 23
15 18 20 21 21 21 21 23 26 26 23 22 23 23 25 32 35 32 29 24 21 21 21 21 21 20 20 19 19 18 18 17 17 17 17 16 16 16 15 15 16 15 15 15 14 14 15 15 15 16 18 19 20 20 20 20 20 20 21 21 22 22 22 22 23 23 23 24 24 24 25 25 25 26 26 26 26 25 24 24 23 24 24 23 22
11 12 13 14 15 15 13 14 16 17 16 15 16 17 21 26 29 28 26 23 22 22 23 23 23 23 22 22 21 20 20 20 21 20 20 20 19 19 19 19 19 18 18 18 17 18 18 18 19 19 19 20 20 21 21 21 21 22 22 23 23 23 24 24 24 24 25 26 26 26 26 26 27 27 27 28 28 28 27 26 25 25 25 24 23
9 10 11 10 11 13 14 15 15 15 15 15 14 13 17 22 26 27 26 23 22 22 23 23 24 25 24 24 24 24 24 24 24 23 23 23 22 22 21 21 21 21 21 21 21 21 21 21 21 21 21 21 22 22 23 23 24 24 24 25 25 25 26 26 26 27 27 28 28 28 28 28 29 29 29 29 30 30 29 27 27 26 25 24 24
7 9 9 9 10 12 14 15 14 13 13 15 15 16 18 22 24 24 24 23 22 22 22 23 23 25 25 26 26 26 26 26 26 26 25 25 25 24 24 23 23 23 23 23 23 23 23 23 24 24 24 24 24 24 25 25 26 26 27 28 28 29 29 29 29 30 30 30 30 30 29 29 30 31 32 33 32 31 30 29 27 27 26 24 24
7 8 8 8 10 11 13 15 14 13 14 18 18 16 18 21 22 21 22 23 23 23 22 22 23 24 25 26 26 27 27 27 27 27 27 27 26 26 26 25 25 25 24 24 24 25 25 26 26 26 26 26 26 26 26 27 27 27 28 29 30 30 31 30 30 31 31 31 30 31 32 32 33 33 34 35 34 32 30 29 28 27 26 25 25
7 7 8 8 9 10 12 14 15 14 16 18 18 17 19 21 22 21 20 19 20 22 22 23 24 24 24 25 26 27 27 27 26 26 27 27 27 28 28 27 27 26 25 25 25 26 26 27 27 27 27 26 26 26 27 28 28 29 29 30 31 31 31 31 30 31 32 33 33 34 35 34 35 37 38 38 36 34 31 29 29 27 26 25 25
6 6 7 7 8 9 11 12 13 14 15 17 18 18 20 22 23 24 22 19 19 20 21 23 25 25 25 25 25 26 27 27 26 27 27 28 28 29 29 28 28 27 27 27 27 28 28 28 28 28 27 26 26 27 29 30 31 32 32 32 33 33 32 32 32 34 36 36 36 37 37 36 36 38 40 40 37 34 31 29 28 27 25 25 25
6 5 5 6 7 9 11 11 13 15 16 17 18 18 19 21 22 24 24 23 23 23 23 23 23 24 25 25 25 26 27 27 27 27 27 28 28 29 29 29 28 29 29 29 30 30 30 30 30 30 29 28 28 30 32 34 35 35 35 36 36 36 35 35 36 37 38 39 38 38 37 37 36 39 43 42 37 33 31 29 27 25 24 25 26
5 5 5 6 7 8 10 12 14 15 15 16 18 19 20 21 22 23 24 24 25 25 26 24 23 24 25 25 26 26 27 27 28 28 28 29 30 31 31 31 31 31 32 32 32 32 32 32 31 31 31 31 32 33 35 37 38 38 38 39 39 38 37 37 38 39 39 39 38 37 36 36 36 38 40 38 32 28 26 25 23 23 24 25 27
4 4 5 6 6 8 9 10 12 13 14 15 17 19 21 22 23 23 23 23 23 22 23 23 23 24 25 26 27 28 28 29 30 31 32 33 33 34 34 35 35 35 35 34 34 33 32 32 33 33 34 36 36 37 38 39 40 40 40 40 39 38 37 37 38 39 39 37 36 36 37 36 36 35 34 30 25 23 22 23 24 25 26 27 29
6 6 7 8 9 10 11 11 12 13 13 15 16 18 19 19 20 20 20 20 19 19 20 22 24 25 26 27 28 29 30 31 32 33 34 35 35 36 36 37 38 37 37 36 36 36 35 35 36 36 37 38 38 39 39 40 41 41 41 40 38 37 37 38 39 40 39 36 36 37 37 35 33 31 29 25 22 22 24 26 28 28 28 29 31
9 9 10 11 12 13 13 14 15 16 16 17 18 19 19 19 19 20 19 19 19 19 20 22 23 24 25 26 27 28 30 31 32 34 35 36 37 37 38 39 39 39 39 39 40 40 40 40 40 39 39 40 40 39 39 39 40 41 40 39 38 38 39 40 40 40 39 36 36 36 35 32 30 27 25 22 22 24 27 28 28 28 29 30 32
12 13 13 14 15 16 16 17 18 19 20 20 21 22 22 23 24 24 24 24 24 24 25 25 26 27 28 28 29 30 31 33 34 35 37 38 38 39 40 40 41 42 43 44 45 46 46 46 46 45 44 44 42 40 38 38 38 39 39 39 40 40 41 41 41 40 39 37 36 34 31 28 26 25 24 24 25 27 28 28 28 29 30 31 32
15 17 18 19 19 20 21 21 22 22 23 23 24 25 25 26 27 28 28 29 29 30 31 32 33 33 34 35 35 36 37 39 40 41 42 43 43 44 45 45 46 47 48 49 50 50 50 50 49 48 47 44 42 40 38 37 37 39 39 40 41 41 41 40 39 39 39 38 35 31 27 24 24 25 26 27 28 28 28 28 29 30 31 32 33
20 21 22 23 23 24 24 24 24 24 25 25 26 26 27 28 29 29 30 31 32 33 34 36 37 38 39 40 40 41 42 43 44 45 46 47 47 47 48 48 49 49 50 50 51 52 52 51 51 50 48 46 44 42 40 39 39 39 40 41 41 41 40 41 41 41 40 37 33 28 24 23 24 25 27 28 28 29 29 28 29 30 31 33 34
22 23 23 24 24 25 25 25 25 25 25 26 27 28 29 30 31 32 33 34 36 37 38 39 40 41 42 43 43 44 45 45 46 47 48 49 50 50 51 51 52 52 53 53 53 54 55 55 55 54 52 50 47 44 42 41 41 41 42 42 42 40 40 41 42 41 38 34 30 26 24 25 26 27 27 28 28 28 28 29 30 31 32 33 34
21 22 23 23 24 25 26 27 27 28 29 30 31 32 33 34 35 36 37 39 40 41 42 43 44 44 45 46 46 47 47 47 48 48 49 50 51 51 52 52 52 53 53 54 54 55 55 55 55 54 53 51 48 46 44 43 42 42 42 42 42 42 41 41 42 40 35 31 29 28 27 27 28 29 29 29 28 28 29 30 31 32 33 33 34
23 24 25 26 26 27 28 29 30 31 32 33 34 36 37 38 39 40 41 42 42 43 44 45 45 46 46 46 46 46 46 45 45 44 45 46 46 47 47 47 47 47 48 48 49 50 51 52 52 52 51 50 48 47 45 44 43 42 42 41 42 42 42 44 45 44 38 33 30 29 28 29 30 31 30 30 29 29 30 31 31 32 33 33 33
24 25 27 28 28 29 30 31 32 33 34 35 36 37 38 39 40 40 41 42 42 43 43 43 43 43 43 43 42 42 40 38 38 38 39 39 40 40 40 40 40 40 40 41 41 42 43 45 46 47 47 47 47 47 46 45 44 43 42 42 40 37 39 43 41 36 34 32 29 27 28 30 31 31 30 30 30 31 32 32 32 32 31 31 31
25 26 27 27 28 29 30 31 31 32 33 33 35 36 37 37 38 37 37 38 39 39 39 38 37 37 36 35 35 35 34 32 32 32 33 33 35 36 36 36 36 36 37 37 37 37 36 37 38 39 41 42 44 44 45 44 44 43 42 40 37 33 33 33 27 25 26 28 27 27 29 31 32 32 31 31 32 33 33 33 32 31 29 28 28
24 25 26 26 27 27 27 28 29 29 30 30 30 30 31 32 32 32 31 30 31 31 31 30 29 28 28 27 27 28 29 29 29 30 30 31 32 33 34 35 36 36 36 37 37 36 36 35 34 34 35 37 38 40 42 42 42 41 40 38 34 32 31 29 27 27 27 26 26 28 30 32 33 34 34 33 33 33 33 32 30 28 26 26 26
22 23 23 23 23 23 24 24 25 26 26 26 26 25 24 24 25 26 26 25 25 25 25 25 24 24 24 25 25 26 27 29 30 31 32 32 33 34 35 36 37 38 39 39 39 39 38 36 35 34 33 33 34 36 38 38 38 38 37 33 29 28 27 28 28 29 27 26 27 30 31 32 34 35 34 34 34 33 32 29 26 24 24 24 24
19 19 20 20 20 20 21 22 22 22 22 21 21 20 19 18 19 20 22 23 23 22 22 22 23 24 25 26 27 28 30 31 31 32 32 33 34 34 35 36 37 38 39 41 41 41 41 39 37 34 32 32 32 32 33 34 33 32 30 27 24 23 23 23 24 25 26 25 26 27 29 32 33 33 33 33 32 30 27 24 22 22 23 22 23
16 17 18 19 19 19 19 19 19 19 18 17 17 16 16 16 16 17 18 20 21 22 23 23 23 25 26 27 28 28 28 27 26 26 27 28 29 29 30 31 32 34 35 37 38 39 39 38 36 33 31 30 29 29 29 29 28 26 23 21 20 19 19 18 19 22 24 25 25 26 29 31 32 31 31 30 27 24 22 20 20 21 21 21 21
15 16 17 18 19 18 17 17 16 16 16 15 15 15 16 16 17 17 18 19 20 22 23 23 24 23 22 22 22 21 20 19 20 21 22 23 23 23 24 26 28 29 30 31 32 33 35 35 33 30 27 26 26 25 25 23 21 19 18 18 17 16 16 16 18 21 24 26 27 28 29 29 28 27 26 25 22 20 19 19 19 20 20 20 20
14 15 16 17 16 16 15 15 14 14 14 14 14 14 15 16 17 17 18 19 19 19 18 18 19 18 16 15 15 15 16 17 19 20 21 21 21 22 22 22 23 24 25 25 26 28 29 30 28 25 22 22 23 21 19 17 17 17 17 18 17 15 15 18 20 23 25 27 27 27 26 24 23 22 20 19 18 17 17 18 18 19 19 19 18
12 13 13 13 13 12 12 12 12 13 13 12 12 13 14 15 16 16 16 15 14 14 13 13 14 15 15 14 15 15 16 18 19 20 21 21 22 23 22 21 20 20 21 22 23 24 25 26 25 21 19 20 22 21 18 16 16 17 18 19 19 18 18 20 22 24 25 25 24 24 23 21 18 17 16 15 16 16 17 17 17 17 17 17 16
11 11 11 10 10 10 9 9 9 10 10 10 10 11 12 13 14 13 13 12 11 11 11 11 11 13 14 15 15 15 16 17 18 19 20 21 22 22 23 22 22 21 20 19 19 20 21 22 20 18 19 21 24 23 21 18 16 17 18 20 21 20 19 17 18 19 21 22 22 22 20 16 14 13 13 13 14 16 17 16 16 16 15 14 13
11 11 10 9 9 9 8 7 7 7 7 8 8 9 10 11 11 11 11 11 11 10 10 10 10 11 12 14 15 16 16 17 17 18 19 20 21 21 22 22 22 21 20 18 16 15 16 17 17 16 17 21 23 23 22 20 17 17 18 19 18 16 13 13 15 17 18 20 20 19 16 13 11 11 12 13 15 16 15 14 14 14 13 12 12
11 11 10 9 8 8 7 6 5 6 6 6 7 8 8 8 9 9 10 10 10 10 10 10 10 11 12 13 15 15 16 16 17 19 19 20 20 20 20 20 19 18 18 17 15 14 13 13 15 16 16 19 21 20 20 19 18 17 16 15 14 13 14 16 18 19 20 20 18 16 12 10 10 10 12 14 15 14 13 12 12 11 11 11 11
11 10 10 8 8 7 6 5 5 5 6 6 6 6 7 7 8 8 9 9 9 9 9 10 10 11 13 14 15 16 16 17 19 20 20 21 21 20 19 19 18 17 16 16 15 14 12 10 10 12 14 17 18 17 18 17 15 14 11 10 11 13 16 19 22 23 21 18 15 11 9 9 10 11 12 13 13 11 11 10 10 10 9 9 10
10 10 9 8 7 6 5 5 5 5 5 4 4 5 5 6 7 8 8 8 8 8 9 10 11 12 13 14 15 16 18 18 20 21 22 22 22 21 19 19 19 17 15 14 14 13 10 7 7 8 9 10 11 14 15 12 11 10 8 9 13 17 21 23 24 23 19 15 11 9 8 9 10 11 12 12 11 10 9 9 9 9 8 9 10
9 9 9 8 6 5 5 5 6 6 5 5 4 5 5 6 7 8 9 9 9 9 9 10 11 12 13 14 15 16 17 18 19 20 21 20 20 19 19 19 18 17 14 11 9 9 7 6 7 7 7 7 9 10 10 9 7 7 9 12 16 19 20 20 20 18 15 11 8 8 8 8 10 11 12 11 9 9 9 9 8 8 8 9 10
8 8 8 7 6 5 5 5 6 6 6 6 5 6 6 7 8 9 10 11 11 11 11 11 12 13 13 14 15 16 16 16 17 17 17 17 17 16 16 15 14 13 12 10 8 7 4 2 3 5 7 8 7 9 12 13 11 10 13 15 15 15 13 13 13 11 8 6 6 7 7 8 10 11 11 10 9 8 8 8 8 9 9 9 10
6 7 7 5 4 4 5 5 5 5 5 5 6 6 7 7 9 10 11 11 12 12 12 11 12 12 13 13 14 15 15 15 15 14 13 13 13 12 12 11 9 8 8 8 7 6 3 3 4 4 6 8 7 7 11 15 15 15 15 15 13 12 10 9 8 6 5 5 6 7 7 8 9 10 10 9 8 7 7 7 8 9 10 9 10
5 5 4 3 2 2 2 2 2 2 3 4 4 5 5 6 7 8 10 10 11 11 11 11 11 12 13 14 14 15 15 15 14 14 13 12 10 7 7 8 7 7 7 7 7 8 8 8 8 8 9 11 12 12 13 14 13 12 11 10 9 8 7 6 6 5 5 6 6 6 6 7 8 8 8 8 7 7 7 8 9 10 10 10 10
2 2 1 2 2 3 5 5 5 6 7 7 8 8 8 8 8 8 8 8 8 9 10 11 11 12 13 14 14 14 15 15 15 15 14 13 9 6 5 7 8 8 9 9 9 9 9 8 8 9 11 12 13 14 13 12 10 8 6 5 5 5 5 6 6 5 5 5 5 6 6 7 7 8 8 7 7 6 6 7 8 9 10 11 11
2 1 2 2 2 3 5 5 5 6 7 8 9 9 10 10 10 10 10 11 11 11 11 12 12 12 12 13 13 13 13 14 14 14 13 12 9 6 6 7 8 8 9 8 7 6 6 6 5 5 7 8 8 7 7 6 5 4 4 4 5 5 6 6 5 5 5 5 6 6 7 7 7 7 7 6 6 5 6 6 7 9 11 11 11
5 4 3 2 1 1 2 3 3 4 5 6 7 9 9 10 11 11 12 13 13 14 14 15 15 15 14 14 14 13 13 12 12 12 12 11 8 6 7 8 8 8 8 6 4 3 2 2 3 3 1 3 3 2 1 0 1 3 4 4 5 5 5 6 5 5 5 6 6 7 7 7 6 6 5 5 4 4 5 6 7 9 10 11 10
7 5 4 4 2 1 1 1 1 2 4 5 7 8 10 10 11 12 13 13 14 14 15 16 16 16 16 16 16 16 15 15 14 13 13 12 9 7 6 7 8 9 8 5 3 1 2 3 4 5 4 3 2 2 2 3 3 3 3 4 4 5 5 5 5 5 5 6 6 6 6 6 5 5 4 4 3 4 5 6 7 9 10 11 11
9 7 6 5 4 3 2 1 0 1 3 5 6 9 10 11 12 13 13 13 14 14 15 15 15 16 17 17 18 17 17 16 15 13 12 11 9 8 7 7 7 8 8 6 2 2 3 5 5 6 5 4 4 3 3 4 3 3 3 4 4 4 3 3 4 4 5 6 6 6 5 4 4 3 3 3 4 5 6 7 8 9 11 12 13
Wind_Direction
194 196 198 200 201 203 208 212 214 217 219 218 221 230 235 237 244 261 272 270 276 282 274 258 245 238 234 226 215 200 185 176 170 164 161 158 153 148 143 137 130 125 124 124 124 123 124 125 125 124 122 119 115 113 112 118 131 152 171 185 201 215 233 254 271 279 265 248 244 259 272 271 271 283 290 291 290 285 282 283 287 293 300 305 308
199 200 202 201 201 204 210 213 216 220 224 223 224 232 238 237 240 257 269 267 272 277 266 244 233 231 228 220 211 198 183 176 169 164 161 156 149 144 138 132 126 120 118 117 114 112 113 113 112 111 111 109 107 106 102 102 109 119 137 157 180 196 208 228 253 269 277 280 280 280 282 281 285 291 296 297 297 296 293 293 295 298 302 305 307
202 204 205 204 204 209 214 217 219 224 229 229 229 233 238 236 238 252 264 263 268 272 259 232 217 214 214 209 200 191 183 179 175 169 165 159 152 145 137 128 122 118 117 115 113 111 110 111 110 107 102 96 89 78 58 29 11 359 345 280 250 245 240 241 250 259 268 274 275 276 278 284 291 298 302 302 302 301 299 297 297 299 301 304 306
203 205 208 208 210 215 219 221 223 226 231 233 232 233 234 234 236 249 258 257 264 268 253 225 205 200 203 201 195 189 186 184 181 178 174 169 164 157 148 139 131 126 123 121 123 122 120 119 119 117 112 93 33 353 336 321 313 308 303 297 291 285 280 273 269 268 269 270 270 271 274 279 285 291 295 296 295 295 294 294 294 295 296 298 299
203 205 208 211 215 218 221 223 225 228 233 237 236 235 235 233 236 245 247 247 257 260 243 218 199 195 197 198 195 193 192 191 188 185 183 182 182 183 180 177 179 190 201 209 217 224 228 233 240 258 272 284 293 296 294 291 289 289 288 288 287 285 284 282 280 278 277 275 275 276 278 280 281 283 285 287 288 288 288 289 290 290 290 290 292
210 210 211 213 216 220 223 226 228 231 236 238 238 239 238 238 241 242 236 236 248 249 232 209 196 195 198 201 201 201 201 201 201 199 199 200 203 210 218 228 243 256 261 264 267 271 272 273 277 281 283 284 285 287 287 283 280 278 278 280 281 281 282 282 281 280 279 279 279 280 282 283 284 285 284 284 284 284 285 286 286 285 284 285 287
219 220 220 220 221 223 226 228 229 233 237 239 240 240 239 241 241 233 224 227 236 237 224 206 198 197 202 206 208 209 211 211 213 216 217 219 223 230 240 251 264 270 272 272 272 271 272 274 277 280 282 284 287 290 291 288 283 280 276 275 275 276 278 278 278 278 278 279 279 281 281 281 282 284 285 284 283 283 283 282 280 280 281 283 286
223 225 228 229 228 228 229 231 232 234 237 240 242 241 236 235 231 218 215 221 223 225 220 207 200 202 207 214 219 220 223 225 227 230 232 234 238 242 249 256 263 268 270 270 269 266 266 269 274 279 282 285 289 293 295 296 295 290 284 279 277 276 277 277 277 278 278 277 277 278 279 280 280 281 281 281 282 281 279 276 274 275 277 281 284
226 228 232 235 234 232 231 231 233 235 236 237 241 243 236 229 221 212 210 213 213 217 218 210 205 206 209 218 225 228 233 237 240 242 244 246 247 248 250 253 256 259 261 262 261 261 262 267 273 278 281 283 286 289 292 294 295 294 291 288 286 285 284 281 279 277 276 275 274 273 274 276 278 278 278 277 277 276 273 270 270 272 275 279 284
224 227 233 237 238 236 234 233 234 238 239 237 241 248 240 225 219 214 208 206 208 215 218 215 211 210 212 219 226 231 237 241 244 248 250 253 255 255 255 255 254 254 253 253 253 255 258 262 266 270 273 276 279 282 285 288 290 291 291 290 289 288 287 285 282 279 276 273 271 270 269 270 273 275 275 275 273 270 267 266 267 270 274 279 284
222 227 230 231 229 230 233 235 237 240 241 238 242 250 241 226 220 214 205 202 208 214 216 217 217 216 217 221 226 231 236 240 243 247 249 251 253 254 254 254 254 254 252 251 251 252 255 258 261 263 266 270 273 275 277 279 281 283 284 285 285 284 283 282 282 281 279 278 275 272 269 267 267 269 271 272 270 267 264 264 267 271 276 281 285
221 219 220 217 214 216 220 225 232 237 242 248 251 252 242 226 215 206 200 204 213 216 217 218 219 220 222 224 227 231 234 238 242 245 247 249 250 251 252 252 254 255 255 255 255 255 256 257 259 262 264 267 268 269 270 272 274 275 277 278 280 281 281 281 281 280 281 281 280 277 274 269 265 264 266 269 269 266 264 265 268 272 277 282 286
215 210 209 207 204 208 210 213 220 231 242 249 244 227 213 203 198 197 200 208 217 220 221 222 222 224 226 228 231 234 236 239 242 245 248 250 250 251 252 254 256 257 258 260 260 261 261 261 263 265 267 269 269 270 272 273 274 275 276 277 278 281 282 283 283 283 282 281 281 281 279 274 270 266 265 265 265 264 264 265 268 272 277 281 285
202 204 207 206 204 206 208 209 213 223 229 223 209 193 186 189 195 201 206 213 221 224 225 227 227 228 229 232 235 238 241 243 245 247 248 249 250 251 252 253 256 258 261 264 266 268 268 268 269 270 272 273 273 274 274 274 275 276 277 278 279 281 282 284 285 285 285 285 285 284 282 278 274 270 266 265 263 262 262 264 268 272 276 279 285
191 199 202 205 205 207 210 210 208 210 207 202 197 194 195 201 208 214 218 219 220 224 227 229 230 231 231 233 237 240 243 245 247 249 249 249 250 252 253 255 256 257 260 264 266 269 270 270 270 270 270 271 271 272 272 272 273 274 275 277 279 281 282 283 283 284 285 286 284 280 278 276 274 271 268 266 265 264 263 265 269 272 275 279 284
187 194 200 203 203 208 215 211 205 202 198 196 199 204 209 213 216 224 230 226 220 223 228 229 232 234 235 236 238 241 245 248 250 251 252 253 254 257 259 260 260 260 261 263 263 264 264 264 265 266 267 268 269 270 270 271 272 273 275 277 278 280 281 282 282 282 283 282 280 277 276 273 271 270 267 264 264 264 264 266 269 271 273 279 284
180 186 197 206 207 212 217 212 208 209 208 208 211 212 215 219 222 227 233 232 228 231 234 233 233 237 240 241 243 245 248 250 252 253 254 256 258 260 262 263 264 265 266 266 265 264 264 265 265 266 267 268 268 269 271 273 274 276 277 278 279 280 281 281 281 281 281 281 279 278 276 273 270 268 266 263 260 260 261 263 266 268 272 278 282
174 181 195 209 215 219 222 219 217 218 218 220 224 225 225 227 230 233 235 236 236 238 239 237 235 238 243 245 246 249 251 253 254 256 258 259 259 261 263 264 265 267 268 268 268 267 268 268 269 270 271 271 271 271 273 275 277 278 279 279 279 281 282 282 282 281 281 280 279 278 278 275 271 269 266 260 254 252 255 258 262 266 272 277 280
174 185 197 209 219 226 230 230 230 229 228 228 232 235 237 238 239 240 240 243 244 240 237 237 237 239 242 245 246 248 251 254 256 257 258 259 260 262 263 263 263 264 264 264 265 266 268 270 272 274 275 275 274 274 275 276 278 279 279 279 280 281 281 281 280 279 278 278 278 278 277 275 274 271 264 255 247 247 251 255 259 264 269 274 280
200 210 219 222 228 236 241 244 244 242 239 236 234 235 238 240 242 241 241 244 246 243 238 238 241 242 243 245 246 248 250 253 255 257 258 258 259 260 260 260 260 261 262 262 263 265 268 271 274 276 276 276 276 276 277 278 279 279 279 279 279 279 278 277 276 276 276 276 274 272 270 270 273 270 259 247 244 247 250 253 258 263 269 275 282
231 240 245 245 243 244 246 247 246 244 243 241 238 236 235 236 236 237 238 241 243 244 241 241 244 246 247 249 249 250 252 253 255 256 257 257 259 259 260 261 261 262 263 264 265 266 268 270 272 274 275 276 277 278 279 280 280 280 279 279 278 277 275 275 275 274 275 274 272 270 270 270 270 265 256 251 250 251 253 257 263 269 276 281 285
242 251 256 255 253 251 250 250 250 252 254 254 253 250 247 244 242 240 240 241 241 241 242 243 245 248 250 252 253 255 256 257 258 258 259 259 260 261 262 263 264 265 265 265 265 266 267 269 270 271 273 275 278 279 280 280 280 279 279 278 277 276 275 274 274 273 274 273 270 267 265 263 260 257 256 256 256 255 258 263 268 274 279 284 287
255 259 261 262 262 262 262 262 261 261 263 264 263 261 258 257 255 254 253 253 251 250 250 249 250 252 254 256 257 258 259 260 260 260 260 261 261 262 262 263 264 265 266 267 267 268 269 270 271 272 273 275 277 278 278 278 278 278 278 277 277 277 277 276 274 272 271 269 267 263 258 253 252 253 254 255 255 258 262 265 269 275 281 286 290
257 259 260 261 263 264 265 266 266 267 267 267 267 266 264 263 262 262 262 262 262 262 262 262 262 263 264 264 264 264 264 264 265 265 265 265 265 265 265 266 266 266 267 268 269 270 271 272 273 274 275 276 276 276 276 276 276 277 279 279 278 279 279 277 274 273 269 263 257 254 252 251 250 249 250 251 254 257 261 265 272 279 285 289 291
256 257 258 259 260 262 263 265 265 266 266 267 267 266 266 266 266 266 266 266 266 266 266 267 267 267 267 267 267 267 267 268 269 269 269 269 269 269 270 270 271 271 271 272 272 273 273 274 275 276 278 278 278 277 276 275 274 275 277 278 279 281 281 278 275 274 268 256 246 244 246 246 245 244 245 248 252 257 262 270 277 283 286 288 291
257 258 258 259 260 262 263 264 264 264 264 265 265 266 266 267 267 268 269 269 269 269 268 268 268 268 268 268 268 268 269 270 271 272 273 273 274 274 274 275 275 275 275 275 275 275 276 277 277 278 278 278 277 276 274 272 272 272 273 275 277 280 280 278 275 269 257 242 237 241 241 240 241 243 245 248 252 258 266 273 278 281 284 288 291
259 260 260 260 261 261 262 264 264 265 266 267 267 268 268 269 269 270 270 271 271 272 272 272 273 273 273 273 273 274 275 275 275 276 276 276 277 277 276 276 275 275 274 274 274 274 274 274 275 275 275 275 274 273 272 271 269 269 270 272 274 276 276 275 272 264 250 237 234 236 236 237 241 242 244 249 254 261 268 273 277 281 285 289 291
263 264 264 265 265 265 265 266 267 268 269 270 270 271 272 272 273 273 273 273 273 274 274 275 276 276 276 277 277 278 278 279 278 278 277 277 276 276 276 276 275 274 273 272 272 272 271 271 271 271 272 272 271 270 270 269 267 267 266 267 270 272 273 272 268 259 248 237 232 234 236 237 239 240 244 250 256 262 268 273 278 283 286 288 290
264 266 266 267 268 268 269 269 270 270 271 271 272 272 272 273 274 274 275 275 275 276 276 277 278 278 279 280 280 280 280 280 279 279 278 277 277 276 276 276 277 277 277 276 275 274 272 271 271 270 270 269 269 268 268 267 266 265 265 265 267 271 274 271 261 247 237 232 232 236 239 237 238 241 246 252 259 265 271 276 280 283 285 287 290
268 269 269 270 270 271 271 272 272 272 272 273 273 274 273 273 274 275 277 277 278 278 279 280 280 281 281 282 282 282 282 281 280 280 280 280 280 280 279 279 279 279 279 279 279 278 276 275 273 271 269 268 267 267 267 267 267 267 268 268 267 268 272 267 247 224 225 233 236 238 238 239 243 249 253 258 263 268 272 275 278 280 282 286 290
276 276 276 276 276 277 277 277 277 277 277 277 278 279 280 280 279 280 280 281 281 281 282 283 283 284 283 283 283 283 283 283 282 281 281 280 280 280 281 281 280 279 279 278 278 278 277 277 275 274 272 269 268 267 267 268 269 270 272 274 271 267 269 266 251 240 244 250 251 249 247 247 251 256 258 261 265 268 271 273 275 277 281 286 292
281 281 281 281 282 283 284 284 284 284 284 284 284 285 287 288 289 289 288 288 287 288 288 290 291 291 291 290 288 287 287 287 287 287 287 286 284 283 282 281 280 280 279 278 277 276 275 274 273 272 272 271 269 268 268 269 270 271 273 275 273 267 265 265 260 258 262 264 261 258 255 254 254 256 259 262 266 270 272 274 276 280 285 290 296
283 284 284 284 285 286 287 287 286 285 285 285 286 287 287 288 290 292 294 294 294 293 293 293 294 295 295 294 293 292 292 293 294 294 294 293 292 290 288 286 284 282 281 279 278 276 274 271 269 268 267 268 268 268 268 269 269 271 271 271 267 261 257 257 259 262 266 267 263 259 255 253 253 256 259 264 268 270 272 275 280 286 291 296 300
286 286 287 287 288 288 288 286 285 284 282 281 282 282 283 285 286 289 292 295 297 297 296 295 294 294 294 294 294 295 296 298 299 300 299 298 297 295 294 292 289 287 284 281 278 276 272 269 267 264 262 262 263 265 266 266 266 267 266 263 258 254 253 255 258 261 261 259 256 254 252 251 252 255 260 265 268 269 272 278 286 291 296 300 301
288 289 290 290 291 290 289 286 284 282 280 280 282 284 288 290 292 293 293 294 295 296 296 296 296 296 297 297 298 299 301 303 306 308 307 304 302 301 300 300 298 295 291 286 281 277 272 267 263 260 258 257 257 260 262 261 258 256 254 249 246 247 251 255 257 258 257 254 251 249 248 248 251 257 261 264 267 269 274 282 290 295 299 299 297
291 292 292 291 291 290 288 284 282 281 281 283 287 290 293 294 295 295 297 297 298 298 299 299 300 301 303 304 303 302 302 304 308 313 312 309 308 307 307 307 307 304 300 293 285 279 273 266 260 256 255 255 254 253 252 250 245 241 239 239 242 249 254 254 252 251 251 250 247 245 246 250 255 259 261 263 265 270 279 287 292 295 295 293 292
294 293 293 294 294 294 291 285 281 279 280 283 288 291 293 294 296 299 302 305 307 310 311 310 309 308 309 310 307 305 304 305 308 311 311 309 309 310 310 312 312 310 305 299 291 282 273 265 256 246 240 242 245 241 236 233 230 227 230 238 244 245 243 243 243 244 243 243 243 244 248 252 253 254 257 262 270 278 286 290 290 289 289 289 288
298 297 301 305 307 307 304 295 286 281 281 284 288 292 296 298 301 306 311 316 320 321 318 316 313 310 310 311 311 311 311 311 312 314 315 316 316 316 315 316 315 313 310 307 301 292 279 264 251 238 230 233 237 233 225 223 224 224 229 236 235 231 231 238 245 247 244 243 244 245 247 247 248 253 263 273 280 286 288 287 286 285 285 284 284
307 306 311 317 318 318 313 303 292 288 288 292 298 304 307 309 313 318 321 322 322 320 316 314 313 312 313 315 316 317 319 322 324 326 327 328 328 327 325 322 319 316 313 310 307 302 287 263 246 241 240 241 238 228 219 219 222 218 218 224 228 231 241 252 254 253 251 248 244 242 243 246 252 263 274 280 283 286 285 283 282 282 281 281 284
311 312 317 322 323 318 310 301 297 297 299 307 317 322 323 326 331 333 330 325 321 316 312 312 315 318 318 320 320 322 326 331 333 334 334 334 334 335 333 330 327 323 319 312 306 305 298 273 250 241 245 251 246 224 206 205 210 209 213 225 237 246 252 248 245 248 251 248 241 236 238 247 257 266 274 280 282 283 282 279 278 277 276 280 288
312 315 320 324 322 312 300 292 293 295 301 314 327 333 336 340 343 341 339 337 332 323 316 314 317 321 322 323 326 329 332 335 336 335 336 337 337 337 336 334 331 329 326 318 307 300 299 286 258 242 247 254 243 207 182 186 203 215 231 246 248 248 249 244 242 242 241 234 228 227 234 248 260 269 276 279 278 278 278 276 273 270 271 279 289
312 318 322 324 318 302 285 282 286 290 299 315 327 333 336 340 340 341 343 346 343 335 327 321 320 322 325 328 330 332 333 335 336 335 335 336 336 336 334 332 330 328 326 321 311 301 295 285 264 252 247 235 205 177 169 182 207 225 244 252 247 245 244 240 236 231 223 215 214 224 237 253 266 273 276 276 274 273 273 270 267 267 272 282 290
315 322 324 321 312 295 282 282 284 289 299 313 322 327 330 332 334 335 338 341 341 338 333 327 324 324 325 327 328 329 332 334 336 336 336 336 336 336 334 331 330 332 331 327 322 315 302 282 268 255 222 179 167 176 185 189 201 223 233 233 233 233 231 228 226 220 208 202 213 231 248 264 272 274 273 271 267 264 262 262 265 269 275 283 288
318 326 323 318 310 302 296 292 289 295 306 315 322 325 325 324 324 324 326 329 330 330 329 326 324 323 323 324 327 330 332 334 336 337 338 337 336 337 338 336 337 344 348 348 348 345 329 288 257 239 211 189 192 209 201 186 182 202 215 218 221 225 224 224 225 220 209 209 231 247 259 267 268 266 264 261 258 258 260 263 268 271 274 279 285
321 328 324 319 316 313 308 300 294 297 304 311 317 320 320 319 319 320 323 325 326 327 328 328 326 325 325 327 331 331 330 332 334 334 334 335 335 337 344 348 352 1 7 6 7 13 37 119 134 158 186 187 181 183 182 179 181 194 206 214 221 225 225 227 231 235 237 246 252 256 259 260 259 259 258 257 258 263 267 269 270 270 272 278 287
320 331 336 342 347 358 4 356 351 3 12 8 3 359 352 344 338 336 334 332 328 327 330 332 332 331 331 332 333 331 329 331 333 333 335 342 345 345 356 6 14 28 38 43 49 60 79 111 130 136 147 155 157 160 170 178 183 188 197 206 212 219 229 240 248 254 255 253 255 258 258 257 258 259 259 260 261 264 265 267 268 271 276 283 290
304 341 35 67 83 82 72 64 59 58 58 55 50 46 43 37 30 22 14 5 356 349 346 343 342 340 337 335 335 334 331 331 334 336 342 353 3 10 16 19 23 31 41 49 54 62 75 99 123 133 138 145 153 163 172 178 179 180 190 205 222 241 255 260 262 261 256 251 251 251 249 251 255 256 256 257 258 258 259 263 269 277 283 287 290
240 190 140 121 109 88 70 59 56 56 59 61 61 57 54 52 49 46 42 37 32 26 20 13 7 1 354 348 346 344 340 337 339 342 347 354 1 3 3 7 12 19 31 44 52 56 64 76 90 111 128 135 141 150 159 166 173 191 216 236 245 251 253 252 252 252 250 246 244 244 244 247 249 250 251 252 252 254 260 268 275 282 285 287 291
224 206 195 190 160 97 59 45 44 48 54 63 67 64 60 56 52 50 47 43 39 36 33 29 24 20 16 11 8 5 360 355 355 360 3 5 4 358 352 354 360 4 7 16 34 46 41 29 21 23 89 145 147 146 148 199 264 257 250 241 232 227 228 230 230 230 233 238 241 243 244 244 243 242 243 244 249 260 273 280 284 285 286 291 300
224 221 223 230 231 236 307 345 19 51 62 70 74 72 67 61 55 51 48 44 39 36 35 33 29 27 26 25 24 20 16 12 10 11 11 12 13 14 10 7 7 7 2 353 334 294 272 277 295 306 295 262 238 262 291 297 290 268 242 226 219 214 212 213 216 221 227 233 237 238 238 236 233 230 231 242 262 278 285 286 288 291 295 302 310
225 229 236 240 241 239 242 244 199 105 91 84 79 75 69 63 57 53 49 44 39 37 35 33 31 29 29 30 30 27 23 19 14 10 6 4 3 4 7 9 10 11 10 7 346 272 264 267 274 278 269 250 241 252 262 264 262 243 219 213 215 216 216 220 222 223 224 226 227 228 226 223 222 228 242 265 279 282 283 285 291 298 304 310 314
Height
3119 3121 3123 3125 3128 3130 3131 3133 3134 3136 3137 3138 3139 3139 3140 3141 3142 3143 3144 3145 3145 3145 3145 3145 3145 3145 3146 3147 3147 3147 3147 3148 3148 3149 3149 3150 3151 3151 3152 3153 3154 3155 3155 3156 3157 3157 3158 3158 3158 3159 3160 3160 3161 3162 3163 3164 3164 3165 3165 3165 3165 3165 3166 3166 3166 3166 3166 3166 3166 3166 3166 3166 3166 3166 3166 3166 3166 3166 3166 3166 3165 3165 3165 3165 3165
3118 3120 3122 3124 3126 3128 3129 3131 3133 3134 3136 3137 3138 3138 3139 3140 3140 3141 3142 3143 3144 3145 3145 3144 3144 3145 3146 3147 3147 3148 3148 3148 3149 3149 3150 3150 3151 3151 3152 3153 3154 3155 3155 3156 3157 3157 3158 3158 3159 3159 3160 3161 3161 3162 3163 3164 3164 3165 3165 3165 3165 3165 3165 3166 3166 3166 3166 3166 3165 3165 3165 3165 3165 3166 3166 3166 3166 3166 3166 3165 3165 3164 3164 3164 3164
3116 3118 3120 3122 3124 3126 3128 3130 3131 3133 3134 3135 3136 3137 3138 3138 3139 3140 3141 3142 3143 3144 3144 3144 3143 3144 3145 3146 3147 3148 3148 3149 3149 3150 3150 3151 3151 3152 3152 3153 3154 3155 3155 3156 3156 3157 3158 3158 3159 3159 3160 3160 3161 3161 3162 3163 3163 3164 3165 3165 3165 3165 3165 3165 3165 3165 3165 3165 3165 3164 3164 3164 3164 3164 3165 3165 3164 3164 3164 3164 3163 3163 3163 3162 3162
3114 3116 3118 3120 3122 3124 3126 3128 3130 3131 3132 3134 3135 3136 3137 3137 3138 3139 3140 3141 3143 3143 3144 3143 3143 3144 3145 3146 3147 3147 3148 3149 3150 3150 3151 3151 3152 3152 3152 3153 3154 3154 3155 3155 3156 3156 3157 3157 3158 3159 3159 3160 3160 3160 3161 3162 3162 3162 3163 3163 3164 3164 3164 3165 3164 3164 3164 3164 3164 3163 3163 3163 3163 3163 3163 3163 3163 3163 3162 3162 3162 3161 3161 3160 3160
3113 3115 3117 3119 3120 3123 3125 3126 3128 3129 3131 3132 3133 3134 3135 3135 3137 3138 3139 3141 3142 3143 3143 3143 3143 3144 3145 3146 3147 3147 3148 3149 3150 3150 3151 3152 3152 3152 3152 3153 3153 3154 3154 3155 3155 3155 3156 3156 3157 3157 3158 3159 3159 3160 3160 3161 3161 3161 3161 3162 3162 3162 3163 3163 3163 3163 3163 3163 3163 3162 3162 3162 3162 3162 3162 3162 3162 3161 3161 3160 3160 3159 3159 3158 3158
3111 3113 3115 3116 3118 3120 3122 3124 3126 3127 3128 3130 3131 3132 3133 3134 3135 3137 3138 3139 3141 3142 3142 3142 3142 3143 3144 3146 3147 3147 3148 3149 3149 3150 3151 3151 3152 3152 3152 3152 3153 3153 3154 3154 3154 3154 3155 3155 3155 3156 3157 3158 3158 3159 3159 3160 3160 3160 3160 3160 3161 3161 3161 3161 3161 3161 3161 3161 3161 3161 3161 3161 3161 3161 3161 3160 3160 3159 3159 3159 3158 3157 3157 3156 3156
3109 3111 3113 3114 3116 3118 3119 3121 3123 3124 3126 3127 3128 3129 3131 3131 3133 3134 3135 3138 3139 3140 3141 3141 3142 3143 3144 3145 3146 3147 3147 3148 3149 3150 3150 3151 3152 3152 3152 3152 3152 3153 3153 3153 3154 3154 3154 3154 3154 3155 3156 3156 3157 3158 3158 3159 3159 3159 3159 3159 3159 3159 3160 3160 3160 3160 3160 3159 3159 3159 3159 3159 3159 3159 3159 3158 3158 3157 3157 3156 3156 3155 3154 3154 3154
3107 3109 3111 3112 3113 3115 3116 3118 3119 3121 3122 3123 3124 3125 3126 3127 3128 3130 3133 3135 3137 3138 3139 3140 3141 3142 3143 3145 3145 3146 3147 3147 3148 3149 3149 3150 3151 3151 3151 3152 3152 3152 3153 3153 3153 3153 3153 3153 3153 3154 3155 3156 3156 3157 3157 3157 3158 3158 3158 3158 3158 3158 3159 3158 3158 3158 3158 3158 3157 3157 3157 3157 3157 3157 3157 3156 3156 3155 3155 3154 3153 3153 3152 3152 3152
3105 3107 3108 3108 3109 3111 3112 3114 3115 3116 3117 3119 3119 3120 3122 3123 3125 3127 3130 3133 3134 3135 3137 3138 3139 3141 3142 3143 3144 3145 3146 3146 3147 3147 3148 3149 3149 3150 3150 3151 3151 3152 3152 3152 3152 3152 3152 3153 3153 3153 3154 3154 3155 3155 3155 3155 3155 3155 3156 3156 3156 3156 3157 3157 3157 3156 3156 3156 3155 3155 3154 3154 3154 3154 3154 3154 3154 3153 3152 3152 3151 3150 3150 3150 3150
3103 3104 3105 3105 3106 3108 3109 3110 3111 3112 3113 3114 3115 3116 3118 3120 3122 3125 3128 3130 3132 3134 3135 3136 3138 3139 3140 3141 3143 3144 3144 3145 3146 3146 3146 3147 3148 3148 3149 3149 3150 3150 3150 3150 3151 3151 3151 3151 3152 3152 3152 3152 3153 3153 3153 3153 3153 3153 3153 3153 3153 3154 3154 3154 3154 3154 3154 3153 3153 3153 3152 3152 3152 3151 3151 3151 3151 3151 3150 3149 3149 3148 3148 3148 3148
3101 3102 3102 3103 3104 3105 3106 3107 3109 3110 3110 3112 3113 3114 3115 3117 3119 3122 3126 3128 3130 3132 3133 3134 3136 3137 3138 3139 3140 3141 3142 3143 3143 3144 3144 3145 3146 3146 3147 3147 3148 3148 3148 3148 3149 3149 3149 3149 3149 3150 3150 3150 3150 3150 3150 3150 3150 3150 3150 3150 3150 3151 3151 3151 3151 3151 3151 3150 3150 3150 3150 3150 3150 3149 3148 3148 3148 3148 3147 3147 3146 3146 3146 3145 3146
3098 3100 3100 3102 3103 3104 3105 3106 3107 3108 3109 3110 3111 3111 3112 3114 3118 3121 3124 3127 3128 3129 3131 3132 3134 3135 3136 3137 3138 3139 3140 3140 3141 3141 3142 3142 3143 3144 3144 3145 3145 3145 3146 3146 3147 3147 3147 3147 3148 3148 3148 3148 3148 3148 3148 3148 3148 3148 3147 3147 3147 3147 3148 3148 3148 3148 3148 3147 3147 3147 3147 3147 3146 3146 3146 3145 3145 3144 3144 3144 3143 3143 3143 3143 3142
3096 3098 3099 3101 3102 3103 3104 3104 3106 3106 3107 3108 3109 3109 3110 3113 3117 3120 3123 3125 3126 3128 3129 3131 3132 3133 3134 3135 3136 3137 3137 3138 3138 3139 3139 3140 3141 3142 3142 3143 3143 3143 3144 3144 3144 3145 3145 3145 3146 3146 3146 3146 3145 3145 3145 3145 3145 3144 3144 3143 3143 3143 3143 3144 3144 3144 3144 3144 3143 3143 3143 3143 3143 3143 3143 3142 3141 3141 3141 3141 3141 3140 3140 3140 3139
3096 3097 3098 3100 3101 3102 3102 3103 3105 3106 3106 3107 3108 3110 3111 3114 3117 3119 3122 3123 3125 3127 3128 3129 3130 3131 3132 3133 3134 3135 3135 3136 3136 3137 3137 3138 3138 3139 3140 3140 3141 3141 3142 3142 3142 3143 3143 3143 3143 3143 3142 3142 3142 3142 3142 3142 3141 3141 3140 3140 3139 3140 3139 3140 3140 3139 3139 3139 3139 3139 3140 3139 3139 3139 3139 3138 3138 3138 3138 3138 3138 3138 3137 3136 3136
3096 3097 3098 3099 3100 3101 3102 3103 3104 3105 3106 3107 3109 3111 3113 3114 3116 3119 3121 3122 3124 3125 3126 3127 3128 3129 3130 3131 3132 3133 3133 3134 3134 3135 3135 3136 3136 3136 3137 3138 3138 3139 3139 3140 3140 3140 3140 3140 3139 3140 3140 3139 3139 3139 3139 3139 3138 3138 3137 3137 3136 3136 3136 3136 3136 3136 3136 3136 3136 3136 3136 3135 3135 3135 3134 3134 3134 3134 3134 3134 3134 3134 3133 3133 3133
3096 3097 3098 3099 3100 3101 3102 3103 3104 3105 3106 3108 3109 3111 3113 3114 3116 3118 3119 3120 3122 3123 3124 3125 3126 3127 3128 3129 3130 3130 3130 3131 3132 3132 3133 3134 3134 3135 3135 3135 3136 3136 3136 3137 3137 3137 3136 3136 3136 3136 3136 3137 3137 3137 3136 3135 3135 3135 3134 3134 3134 3133 3133 3133 3133 3133 3132 3132 3132 3131 3131 3131 3131 3130 3130 3129 3129 3130 3130 3130 3130 3130 3130 3129 3129
3096 3097 3098 3099 3100 3101 3102 3103 3104 3105 3107 3108 3109 3110 3112 3113 3115 3116 3118 3119 3120 3121 3122 3123 3124 3125 3126 3126 3127 3127 3127 3128 3129 3130 3130 3131 3132 3132 3132 3132 3133 3133 3133 3134 3133 3133 3132 3132 3132 3132 3133 3133 3134 3133 3132 3132 3131 3131 3131 3131 3130 3130 3130 3130 3130 3129 3128 3128 3127 3127 3126 3126 3126 3125 3125 3124 3124 3125 3126 3126 3126 3126 3126 3126 3125
3096 3097 3098 3099 3100 3101 3102 3103 3105 3106 3107 3108 3109 3110 3111 3112 3113 3114 3116 3117 3118 3119 3120 3121 3121 3122 3123 3124 3124 3125 3125 3125 3126 3126 3127 3128 3128 3128 3128 3129 3129 3129 3130 3130 3130 3129 3129 3129 3128 3129 3129 3130 3130 3129 3128 3128 3127 3127 3127 3127 3126 3127 3127 3127 3126 3125 3124 3123 3123 3122 3121 3121 3121 3121 3120 3119 3119 3120 3121 3122 3123 3123 3122 3122 3122
3096 3097 3098 3099 3100 3101 3102 3103 3104 3105 3106 3107 3108 3109 3109 3110 3111 3112 3113 3115 3116 3116 3117 3118 3118 3119 3120 3121 3121 3122 3122 3122 3123 3123 3124 3124 3124 3124 3124 3124 3125 3125 3126 3126 3126 3126 3125 3125 3125 3125 3125 3126 3125 3125 3124 3123 3123 3123 3123 3122 3122 3123 3123 3122 3121 3120 3119 3118 3118 3118 3117 3116 3116 3117 3116 3115 3115 3116 3116 3118 3119 3119 3118 3118 3119
3096 3097 3098 3099 3100 3101 3102 3103 3104 3105 3105 3106 3107 3107 3108 3108 3109 3109 3110 3111 3112 3113 3114 3115 3115 3116 3117 3117 3118 3119 3119 3119 3119 3120 3120 3120 3120 3120 3120 3120 3120 3121 3121 3121 3121 3121 3122 3122 3122 3122 3121 3121 3121 3120 3120 3120 3119 3118 3118 3117 3118 3118 3118 3117 3116 3115 3114 3114 3114 3113 3112 3112 3112 3112 3112 3112 3112 3112 3113 3114 3114 3114 3115 3115 3115
3096 3097 3098 3099 3100 3100 3101 3102 3103 3104 3104 3105 3105 3106 3106 3106 3107 3107 3107 3108 3109 3110 3111 3111 3112 3112 3113 3114 3114 3115 3116 3116 3116 3116 3116 3116 3116 3116 3116 3116 3115 3116 3116 3116 3116 3117 3117 3118 3118 3118 3117 3117 3116 3116 3116 3115 3115 3114 3113 3114 3114 3114 3113 3112 3111 3110 3109 3110 3110 3109 3108 3108 3108 3108 3108 3108 3109 3110 3110 3110 3110 3111 3112 3112 3111
3095 3096 3097 3098 3098 3099 3100 3101 3101 3102 3103 3103 3104 3104 3105 3105 3105 3105 3106 3106 3106 3107 3107 3108 3108 3109 3109 3110 3110 3111 3111 3112 3112 3112 3112 3112 3112 3112 3112 3111 3111 3111 3111 3111 3112 3112 3112 3113 3113 3113 3112 3112 3111 3111 3111 3110 3110 3109 3109 3110 3109 3109 3108 3107 3106 3105 3105 3106 3105 3104 3104 3104 3104 3104 3105 3105 3106 3107 3107 3107 3108 3108 3108 3108 3107
3093 3095 3095 3096 3097 3097 3098 3099 3099 3100 3100 3101 3101 3102 3103 3103 3103 3104 3104 3104 3104 3105 3105 3105 3105 3105 3106 3106 3106 3106 3107 3107 3107 3108 3108 3108 3107 3107 3107 3107 3106 3106 3106 3106 3106 3106 3106 3107 3107 3107 3107 3106 3106 3106 3105 3105 3105 3105 3105 3105 3104 3103 3103 3102 3100 3100 3101 3101 3100 3099 3099 3100 3100 3101 3102 3102 3103 3103 3103 3104 3104 3104 3104 3103 3102
3092 3093 3094 3094 3095 3095 3096 3096 3097 3097 3097 3098 3098 3098 3099 3099 3100 3100 3101 3101 3101 3101 3101 3101 3101 3102 3102 3102 3102 3102 3102 3102 3102 3102 3102 3102 3102 3102 3102 3101 3101 3101 3100 3100 3100 3099 3100 3100 3100 3100 3100 3100 3100 3100 3100 3100 3100 3100 3100 3099 3099 3098 3098 3097 3096 3095 3095 3095 3095 3095 3095 3096 3097 3098 3098 3099 3099 3100 3100 3100 3100 3100 3099 3099 3098
3091 3091 3092 3092 3093 3093 3093 3094 3094 3094 3094 3095 3095 3095 3095 3096 3096 3096 3096 3097 3097 3097 3097 3097 3097 3097 3097 3097 3098 3098 3098 3097 3097 3096 3096 3096 3096 3096 3095 3095 3094 3094 3094 3094 3093 3092 3092 3092 3092 3092 3093 3093 3094 3094 3095 3095 3095 3095 3094 3093 3093 3093 3093 3092 3091 3090 3090 3090 3090 3090 3091 3092 3093 3094 3095 3095 3096 3096 3096 3096 3096 3096 3095 3094 3094
3089 3089 3090 3090 3091 3091 3091 3091 3091 3091 3092 3092 3092 3092 3092 3092 3092 3092 3092 3092 3092 3092 3092 3092 3092 3092 3092 3092 3092 3093 3093 3092 3092 3091 3090 3090 3089 3089 3088 3088 3087 3087 3086 3086 3085 3085 3084 3084 3084 3085 3085 3086 3087 3087 3088 3089 3089 3089 3088 3087 3087 3088 3088 3087 3085 3083 3083 3084 3085 3085 3086 3088 3089 3090 3091 3092 3092 3092 3093 3092 3092 3092 3091 3091 3090
3087 3087 3087 3088 3088 3088 3088 3089 3089 3089 3089 3089 3089 3089 3089 3089 3089 3088 3088 3088 3088 3087 3087 3087 3086 3086 3086 3086 3086 3086 3086 3086 3086 3085 3084 3083 3082 3081 3080 3080 3079 3079 3078 3078 3077 3077 3077 3076 3076 3076 3077 3078 3079 3080 3081 3081 3082 3082 3082 3082 3082 3082 3082 3082 3081 3080 3078 3079 3080 3080 3081 3083 3085 3086 3087 3088 3088 3089 3089 3089 3088 3087 3087 3087 3086
3084 3084 3085 3085 3085 3085 3085 3085 3085 3085 3085 3085 3085 3084 3084 3084 3084 3083 3083 3083 3083 3082 3082 3081 3081 3080 3080 3080 3080 3080 3080 3079 3078 3077 3077 3076 3074 3073 3072 3071 3071 3070 3070 3070 3069 3069 3069 3069 3069 3069 3069 3070 3071 3072 3073 3074 3074 3075 3076 3076 3076 3076 3075 3075 3076 3075 3074 3074 3076 3076 3077 3079 3081 3082 3083 3084 3084 3085 3085 3084 3084 3083 3083 3083 3082
3081 3081 3081 3081 3081 3081 3081 3081 3081 3081 3081 3080 3080 3080 3079 3079 3079 3078 3077 3077 3077 3077 3076 3076 3075 3075 3075 3074 3074 3073 3073 3072 3071 3070 3069 3068 3067 3066 3066 3065 3064 3063 3062 3062 3062 3062 3062 3062 3062 3062 3063 3063 3064 3065 3065 3066 3067 3068 3069 3069 3070 3071 3070 3069 3069 3069 3069 3070 3071 3072 3074 3076 3077 3078 3079 3079 3080 3080 3080 3080 3080 3080 3079 3079 3078
3077 3077 3077 3077 3077 3077 3077 3077 3076 3076 3076 3076 3075 3075 3074 3074 3074 3073 3073 3072 3072 3071 3071 3070 3070 3069 3069 3068 3067 3067 3066 3066 3065 3064 3063 3062 3061 3061 3060 3059 3059 3058 3057 3056 3056 3056 3056 3056 3056 3056 3056 3057 3057 3058 3058 3059 3060 3061 3062 3063 3065 3066 3066 3066 3066 3066 3065 3066 3067 3069 3071 3072 3073 3074 3075 3075 3075 3076 3076 3076 3076 3076 3076 3075 3074
3072 3072 3072 3072 3072 3072 3072 3072 3071 3071 3071 3071 3070 3070 3069 3068 3068 3068 3068 3067 3067 3066 3066 3065 3065 3065 3064 3064 3063 3062 3061 3060 3060 3059 3059 3058 3057 3056 3055 3054 3053 3053 3052 3051 3051 3051 3051 3051 3051 3051 3051 3051 3052 3052 3053 3053 3055 3055 3056 3058 3059 3061 3062 3064 3064 3064 3063 3063 3065 3066 3068 3069 3070 3071 3071 3071 3071 3072 3072 3072 3072 3072 3072 3071 3070
3069 3069 3069 3069 3068 3068 3068 3068 3067 3067 3066 3066 3066 3066 3065 3064 3063 3063 3062 3062 3062 3062 3061 3061 3061 3060 3059 3059 3058 3058 3057 3055 3055 3054 3053 3053 3052 3051 3050 3049 3048 3047 3046 3045 3045 3045 3045 3046 3046 3046 3046 3046 3047 3048 3048 3049 3050 3051 3052 3053 3055 3056 3058 3059 3061 3061 3061 3061 3063 3063 3064 3066 3067 3067 3067 3067 3068 3068 3069 3069 3069 3069 3068 3067 3066
3067 3067 3066 3066 3066 3066 3065 3064 3064 3063 3063 3063 3063 3062 3062 3062 3061 3060 3059 3058 3058 3058 3058 3058 3057 3056 3056 3055 3054 3053 3052 3051 3050 3049 3048 3047 3046 3045 3045 3043 3042 3041 3040 3039 3039 3039 3039 3039 3040 3041 3041 3042 3042 3043 3044 3045 3046 3047 3048 3049 3051 3052 3054 3055 3056 3057 3058 3058 3059 3060 3061 3062 3063 3064 3064 3064 3065 3065 3066 3066 3066 3065 3064 3063 3062
3065 3065 3064 3064 3063 3063 3062 3062 3061 3061 3061 3061 3060 3060 3060 3060 3060 3059 3058 3057 3056 3055 3055 3055 3054 3054 3053 3052 3051 3050 3049 3048 3047 3046 3044 3043 3042 3041 3040 3038 3037 3036 3035 3034 3033 3032 3031 3032 3033 3035 3036 3037 3038 3039 3040 3041 3042 3043 3045 3046 3047 3049 3050 3051 3052 3053 3054 3055 3056 3057 3058 3059 3060 3060 3061 3061 3062 3062 3062 3063 3062 3061 3060 3059 3059
3064 3063 3062 3062 3061 3061 3060 3059 3059 3059 3059 3059 3059 3058 3058 3058 3057 3057 3056 3056 3055 3054 3053 3052 3051 3050 3050 3049 3048 3047 3046 3045 3044 3043 3042 3040 3039 3038 3036 3034 3033 3031 3030 3028 3027 3026 3026 3026 3027 3028 3030 3032 3033 3034 3035 3037 3038 3040 3041 3043 3044 3046 3047 3049 3050 3051 3052 3053 3053 3054 3055 3056 3056 3057 3058 3058 3059 3059 3059 3059 3058 3057 3057 3056 3056
3062 3061 3061 3060 3059 3058 3058 3058 3057 3057 3057 3057 3057 3057 3056 3056 3055 3055 3054 3053 3053 3052 3051 3049 3048 3048 3047 3047 3046 3045 3044 3043 3042 3041 3039 3037 3036 3034 3033 3031 3029 3027 3025 3024 3022 3022 3021 3021 3022 3024 3027 3028 3029 3031 3032 3034 3035 3037 3038 3040 3041 3043 3044 3046 3047 3048 3049 3050 3051 3051 3052 3053 3053 3054 3055 3055 3056 3056 3055 3055 3055 3054 3054 3053 3053
3061 3060 3059 3058 3057 3057 3056 3056 3056 3055 3055 3055 3055 3055 3054 3054 3053 3053 3052 3051 3050 3049 3048 3048 3047 3046 3045 3045 3045 3044 3043 3041 3040 3038 3037 3035 3033 3031 3029 3028 3026 3024 3022 3020 3019 3018 3017 3018 3018 3020 3023 3025 3026 3028 3029 3031 3032 3034 3036 3037 3038 3039 3041 3042 3043 3045 3046 3047 3048 3049 3049 3050 3051 3052 3052 3053 3053 3053 3052 3052 3052 3052 3051 3051 3050
3059 3058 3057 3056 3056 3055 3055 3054 3054 3054 3054 3054 3054 3053 3053 3052 3051 3051 3050 3049 3049 3048 3047 3046 3046 3045 3044 3043 3043 3041 3040 3039 3037 3036 3034 3032 3030 3028 3026 3025 3023 3021 3020 3018 3016 3015 3015 3015 3015 3017 3019 3021 3023 3024 3026 3028 3030 3031 3033 3034 3036 3037 3039 3040 3041 3042 3043 3044 3046 3047 3048 3048 3049 3049 3049 3050 3050 3050 3050 3050 3050 3049 3048 3048 3049
3057 3056 3055 3055 3054 3054 3053 3053 3052 3052 3052 3052 3052 3052 3051 3050 3049 3049 3048 3048 3047 3047 3046 3045 3045 3044 3043 3042 3041 3039 3038 3037 3035 3034 3032 3030 3028 3027 3025 3023 3020 3019 3018 3016 3015 3014 3013 3013 3014 3015 3017 3018 3019 3020 3022 3025 3027 3029 3031 3032 3034 3035 3037 3038 3039 3040 3042 3043 3044 3045 3046 3046 3046 3046 3047 3047 3047 3047 3048 3048 3047 3046 3046 3047 3047
3055 3055 3054 3053 3053 3052 3052 3052 3051 3051 3051 3051 3051 3050 3049 3048 3048 3047 3047 3046 3046 3045 3045 3044 3044 3043 3042 3041 3039 3038 3037 3035 3034 3032 3030 3029 3027 3025 3023 3021 3019 3017 3016 3015 3014 3013 3012 3011 3012 3014 3014 3015 3016 3018 3020 3022 3025 3028 3029 3030 3032 3033 3035 3036 3037 3038 3040 3041 3042 3043 3043 3043 3044 3044 3045 3045 3045 3045 3045 3045 3045 3045 3045 3045 3045
3054 3053 3053 3052 3052 3051 3051 3051 3050 3050 3050 3050 3049 3049 3048 3048 3047 3047 3046 3046 3045 3045 3044 3044 3043 3042 3041 3040 3038 3037 3035 3034 3032 3030 3029 3027 3025 3024 3022 3020 3018 3016 3015 3014 3012 3012 3012 3011 3012 3013 3013 3013 3014 3016 3019 3021 3024 3026 3028 3029 3030 3032 3033 3034 3035 3036 3037 3038 3039 3040 3041 3041 3042 3042 3043 3043 3043 3043 3043 3043 3043 3043 3043 3044 3044
3053 3053 3052 3052 3051 3051 3050 3050 3050 3049 3049 3049 3049 3048 3048 3047 3047 3046 3046 3046 3045 3044 3044 3043 3042 3041 3040 3039 3037 3036 3034 3033 3031 3029 3028 3026 3024 3023 3021 3019 3018 3016 3014 3013 3011 3011 3011 3011 3011 3012 3013 3012 3013 3016 3019 3021 3024 3026 3027 3029 3030 3030 3031 3031 3032 3033 3034 3036 3037 3038 3039 3039 3040 3040 3041 3041 3041 3041 3041 3041 3041 3042 3042 3042 3042
3052 3052 3051 3051 3050 3050 3049 3049 3049 3048 3048 3048 3048 3048 3047 3047 3046 3046 3046 3045 3045 3044 3043 3042 3041 3040 3039 3038 3037 3035 3034 3032 3031 3029 3027 3025 3024 3022 3020 3019 3017 3015 3013 3012 3011 3011 3011 3011 3011 3012 3013 3014 3015 3017 3019 3021 3023 3025 3027 3028 3028 3029 3029 3030 3031 3032 3032 3033 3034 3036 3037 3037 3038 3038 3039 3039 3040 3040 3040 3040 3040 3040 3040 3040 3041
3051 3051 3051 3050 3050 3049 3049 3049 3048 3048 3047 3047 3047 3047 3046 3046 3046 3045 3045 3044 3044 3043 3043 3042 3041 3039 3038 3037 3036 3035 3033 3032 3030 3029 3027 3026 3024 3022 3020 3019 3017 3015 3014 3013 3012 3012 3011 3011 3011 3012 3013 3015 3016 3017 3019 3021 3022 3024 3026 3027 3028 3028 3029 3030 3031 3031 3031 3032 3033 3034 3035 3035 3036 3037 3038 3038 3038 3038 3038 3038 3038 3038 3039 3039 3040
3051 3050 3050 3049 3049 3049 3048 3048 3048 3047 3047 3046 3046 3046 3046 3045 3045 3044 3044 3043 3043 3042 3041 3041 3039 3038 3037 3036 3035 3034 3033 3032 3030 3029 3028 3026 3025 3023 3021 3020 3018 3017 3015 3015 3014 3013 3012 3012 3012 3013 3013 3015 3016 3017 3019 3021 3022 3024 3025 3026 3027 3028 3029 3029 3030 3030 3030 3031 3032 3033 3033 3034 3035 3036 3036 3036 3036 3036 3036 3036 3037 3038 3038 3038 3038
3050 3050 3050 3049 3049 3048 3048 3048 3047 3047 3046 3046 3045 3045 3045 3044 3044 3043 3043 3042 3042 3041 3040 3039 3038 3037 3036 3034 3033 3032 3031 3030 3030 3029 3028 3027 3025 3024 3022 3021 3020 3018 3017 3016 3016 3015 3014 3014 3014 3014 3015 3015 3017 3018 3020 3022 3023 3024 3025 3026 3027 3027 3028 3028 3029 3029 3030 3030 3031 3032 3032 3033 3034 3034 3034 3034 3034 3035 3035 3036 3036 3037 3037 3037 3037
3050 3050 3049 3049 3049 3048 3048 3048 3047 3046 3046 3045 3045 3045 3044 3044 3044 3043 3043 3042 3041 3040 3039 3038 3037 3036 3035 3034 3032 3031 3030 3029 3028 3027 3027 3026 3025 3024 3023 3022 3021 3020 3019 3018 3018 3017 3017 3017 3017 3017 3017 3018 3019 3020 3021 3022 3023 3023 3024 3025 3026 3027 3027 3027 3028 3028 3029 3030 3030 3031 3031 3032 3032 3033 3033 3033 3034 3034 3035 3035 3035 3036 3036 3036 3036
3049 3049 3049 3049 3049 3048 3048 3048 3047 3047 3046 3046 3045 3045 3044 3044 3044 3043 3043 3042 3041 3040 3039 3038 3037 3036 3035 3033 3032 3031 3030 3028 3028 3027 3026 3025 3024 3023 3023 3022 3021 3021 3020 3020 3020 3020 3020 3020 3020 3020 3020 3020 3021 3021 3022 3023 3023 3024 3024 3025 3025 3026 3026 3027 3027 3028 3028 3029 3029 3030 3031 3031 3032 3032 3032 3033 3033 3033 3034 3034 3034 3034 3035 3035 3034
3048 3049 3049 3049 3049 3048 3048 3048 3047 3047 3046 3046 3045 3045 3045 3044 3044 3043 3043 3042 3041 3040 3039 3038 3037 3036 3035 3034 3032 3031 3030 3029 3028 3027 3026 3025 3024 3023 3023 3022 3022 3021 3021 3020 3021 3021 3021 3021 3021 3021 3022 3022 3022 3022 3023 3023 3023 3024 3024 3025 3025 3026 3026 3027 3027 3027 3028 3029 3029 3030 3030 3030 3031 3031 3031 3032 3032 3032 3032 3033 3033 3033 3033 3033 3033
3047 3048 3048 3048 3048 3048 3048 3048 3047 3047 3047 3046 3046 3045 3045 3044 3044 3043 3042 3042 3041 3041 3040 3039 3038 3037 3036 3034 3033 3032 3031 3030 3029 3028 3027 3026 3025 3024 3024 3023 3023 3022 3021 3021 3021 3021 3021 3021 3022 3022 3022 3022 3022 3023 3023 3023 3023 3024 3024 3025 3025 3026 3026 3026 3027 3027 3028 3028 3029 3029 3029 3030 3030 3030 3030 3031 3031 3031 3031 3032 3032 3032 3032 3031 3031
3046 3047 3047 3047 3047 3047 3047 3047 3047 3047 3047 3046 3046 3045 3045 3044 3044 3043 3043 3042 3042 3041 3040 3039 3038 3037 3036 3035 3034 3033 3032 3031 3029 3028 3027 3026 3026 3025 3024 3024 3023 3023 3022 3021 3021 3021 3021 3022 3022 3022 3022 3022 3023 3023 3023 3023 3024 3024 3024 3025 3025 3025 3026 3026 3026 3026 3027 3027 3028 3028 3028 3029 3029 3029 3029 3029 3030 3030 3031 3031 3031 3031 3031 3030 3029